星链-4620 (STARLINK-4620 )

导读 | 豆包AI

STARLINK-4620是美国太空探索技术公司(SpaceX)星链(Starlink)低轨卫星互联网星座的一员,于2022年8月31日发射。星链星座旨在为全球提供高速宽带互联网服务,该卫星入轨后承担星座组网任务,为偏远地区、海洋等信号薄弱区域提供网络接入支持,是美国低轨卫星通信网络布局的组成部分。

基本信息
目录编号:
53674
目录名称:
STARLINK-4620
国际标识:
2022-105AC
轨道中心:
EARTH
卫星名称:
星链-4620
卫星全名:
星链-4620 (STARLINK-4620 )
卫星状态:
在轨 (已飞行1337 天)
发射日期:
2022-08-31 UTC
国别 :
美国 (US)
星等 :
--
轨道信息
数据来源 国际轨道数据 AOE轨道数据
星历时间 2026-04-29T13:17:55+0800
7小时前
查看轨道信息
2026-04-22T22:00:00+0800
6天前
查看轨道信息
半长轴 6927.732km 6927.612km
偏心率 0.0002206 0.0002118
轨道倾角 97.564° 97.590°
近地点辐角 80.895° 116.265°
升交点赤经 359.887° 353.369°
平近点角 279.252° 289.460°
近地点 548.066km 548.007km
远地点 551.124km 550.943km
周期 95.641分钟 95.639分钟
每日圈数 15.056229 15.056618
详细信息
固有亮度:
5
最大亮度:
2.5
卫星平台:
Starlink v1.5
覆盖范围:
全球
运营商:
太空探索技术公司
运营商所在国:
美国
制造商(研发单位):
太空探索技术公司
制造商所在国:
美国
使用方式:
暂无
卫星简介
星链(Starlink)计划是由太空探索技术公司(SpaceX)提出的一个巨型低轨卫星互联网星座项目,计划在2019年至2024年间在太空搭建由约1.2万颗卫星组成的“星链”网络,其中1584颗将部署在地球上空550千米处的近地轨道,并从2020年开始工作。该卫星仍在工作。
2D轨道图
3D轨道图
轨道高度分析图
轨道倾角分析图
轨道综合分析图
查看轨道综合分析图